Regional Weather Roundup
Issued by NWS State College, PA

Home | Current Version | Previous Version | Text Only | Print | Product List | Glossary Off
Versions: 1 2 3 4 5 6 7 8 9 10 11 12 13 14 15 16 17 18 19 20 21 22 23 24 25 26 27 28 29 30 31 32 33 34 35 36 37 38 39 40 41 42 43 44 45 46 47 48 49 50

000
ASUS41 KCTP 280510
RWRCTP

REGIONAL WEATHER ROUNDUP
NATIONAL WEATHER SERVICE STATE COLLEGE PA
100 AM EDT MON JUL 28 2014

Note: "fair" indicates few or no clouds below 12,000 feet with no
significant weather and/or obstructions to visibility.

* = STATION THAT DOES NOT REPORT PRECIPITATION /E.G. RAIN...SNOW...ETC/
    THUNDER OR FOG.

PAZ002>004-007>009-013>016-020>023-029>032-280600-
WESTERN PENNSYLVANIA

CITY           SKY/WX    TMP DP  RH WIND       PRES   REMARKS
ERIE           MOCLDY    64  60  87 E6        29.60F
MEADVILLE      CLEAR     60  58  92 E3        29.64F
FRANKLIN*      CLOUDY    57  55  94 N3        29.65F VSB 1/4
NEW CASTLE       N/A     63  62  96 CALM      29.65S
BEAVER COUNTY  NOT AVBL
BUTLER*        CLEAR     63  59  88 W3        29.66S
PITTSBURGH INT PTCLDY    66  64  93 W6        29.64F
PITTSBURGH     PTCLDY    66  64  94 S6        29.63F FOG
INDIANA*       MOCLDY    64  63  94 CALM      29.68F
LATROBE        MOCLDY    68  68 100 SW7       29.66F
WASHINGTON CO* MOCLDY    68  66  94 W7        29.66F
$$

PAZ004>006-010>012-017>019-024>028-033>037-041-042-045-046-049>053-280600-
CENTRAL PENNSYLVANIA

CITY           SKY/WX    TMP DP  RH WIND       PRES   REMARKS
BRADFORD       LGT RAIN  62  60  93 SE5       29.64F
DUBOIS         LGT RAIN  63  61  93 SE9       29.63F
CLEARFIELD     RAIN      63  62  97 CALM      29.66F FOG
JOHNSTOWN      LGT RAIN  64  63  96 SW10      29.68F
ALTOONA        HVY RAIN  67  66  97 W5        29.67S FOG
STATE COLLEGE  CLOUDY    65  63  93 CALM      29.64F
WILLIAMSPORT   LGT RAIN  67  63  87 E6        29.59F
SELINSGROVE    CLOUDY    67  66  97 CALM      29.64F
FT INDIANTOWN  CLOUDY    66  66 100 W7        29.63F
CAPITAL CITY   CLOUDY    66  64  93 CALM      29.63F
HARRISBURG     CLOUDY    68  64  87 E3        29.61F
YORK           CLOUDY    66  65  96 CALM      29.63F
$$

PAZ038>040-043-044-047-048-054-055-060>062-067>071-280600-
EASTERN PENNSYLVANIA

CITY           SKY/WX    TMP DP  RH WIND       PRES   REMARKS
SCRANTON       CLOUDY    70  59  68 VRB5      29.61F
MOUNT POCONO   LGT RAIN  63  59  87 E10G20    29.67F
ALLENTOWN      CLOUDY    67  63  87 E7        29.63F
QUAKERTOWN*    CLOUDY    66  66 100 CALM      29.64F
READING        CLOUDY    69  65  86 CALM      29.61F
LANCASTER      LGT RAIN  66  65  96 CALM      29.62F
COATESVILLE    RAIN      66  66 100 W5        29.65F
POTTSTOWN      CLOUDY    67  66  97 CALM      29.64F
BLUE BELL      CLOUDY    70  68  94 CALM      29.62F
DOYLESTOWN     CLOUDY    67  67 100 CALM      29.61F
WILLOW GROVE   NOT AVBL
NORTH PHILA    LGT RAIN  71  66  84 S3        29.64F
PHILADELPHIA   TSTM      71  69  93 S6        29.64F FOG
$$



USA.gov is the U.S. government's official web portal to all federal, state and local government web resources and services.